Wind_Speed
42 39 33 34 32 35 41 39 40 42 39 41 45 42 43 34 29 25 28 30 30 33 30 32 31 32 28 25 22 24 23 16 21 27 26 28 28 31 33 19 10 15 9 19
42 36 38 39 38 37 35 39 41 47 40 41 40 34 38 34 31 26 28 29 33 31 30 29 31 29 33 32 31 15 17 17 11 7 17 30 29 36 36 35 28 30 7 13
47 44 33 37 38 36 33 34 46 41 41 45 41 41 38 36 36 35 31 30 30 33 35 36 39 39 30 28 29 31 26 28 28 23 14 13 16 25 28 32 28 29 45 33
35 43 42 35 35 37 36 32 44 40 34 30 35 30 31 34 36 32 27 32 36 37 37 39 41 42 41 35 29 31 30 33 34 38 39 39 42 38 32 35 38 28 44 37
34 39 42 41 33 36 41 47 48 43 48 43 39 30 41 38 40 34 35 37 35 36 39 40 42 38 32 34 28 32 35 30 30 37 34 32 39 40 38 40 41 41 42 48
38 32 34 38 38 35 44 40 45 49 49 49 46 45 46 45 44 40 33 36 39 39 37 36 37 35 34 33 24 23 29 28 21 18 16 16 28 35 37 40 41 39 39 39
37 34 34 37 38 36 35 44 35 47 48 50 45 43 47 41 32 34 38 37 33 33 30 29 29 30 29 28 28 27 26 23 22 11 10 5 13 13 11 14 16 21 27 28
36 38 37 34 36 35 37 36 36 31 42 43 41 39 36 34 32 32 33 32 29 27 26 21 15 19 22 26 29 28 26 24 14 8 14 21 29 28 22 19 20 18 23 30
31 33 35 35 31 31 33 39 32 38 45 41 33 25 33 31 28 27 26 23 24 23 20 16 9 8 8 6 6 13 27 28 25 12 5 6 7 7 12 18 29 22 19 19
27 28 30 30 31 31 34 32 36 38 47 38 33 31 29 29 24 21 20 23 20 19 18 15 12 11 10 7 6 5 11 13 24 24 15 13 17 17 17 11 16 16 23 37
24 23 26 26 28 31 31 32 37 37 47 37 37 29 21 17 21 22 18 15 17 17 15 10 10 9 10 9 11 7 8 7 10 13 11 14 17 19 17 26 38 43 44 45
18 22 29 27 29 27 28 29 36 45 41 31 26 19 20 22 19 15 15 15 8 11 9 10 8 8 7 11 6 13 10 15 9 12 9 17 26 35 40 38 41 40 42 41
15 15 23 21 24 32 34 40 40 29 18 13 13 17 16 16 15 14 13 14 13 13 13 11 10 11 11 9 11 15 15 18 22 22 25 27 28 33 33 36 38 39 40 42
9 11 11 12 15 16 12 11 16 13 10 13 11 12 11 11 11 11 10 10 9 10 11 13 13 12 10 11 12 14 15 16 19 26 25 29 29 27 32 36 37 39 40 41
6 6 5 5 5 5 4 4 4 5 7 5 12 10 7 5 3 5 6 6 6 6 7 8 7 8 9 10 11 6 11 18 22 29 26 31 31 27 29 34 35 35 38 39
7 7 7 6 5 4 3 3 7 4 2 1 6 5 5 3 1 1 2 2 2 2 2 1 0 2 5 5 6 11 18 21 24 29 29 31 30 28 29 34 33 36 38 38
5 5 4 4 4 4 3 1 3 3 3 5 9 8 8 6 5 5 5 6 6 4 4 4 3 5 6 2 11 26 32 33 32 33 37 39 34 38 34 36 37 39 40 40
8 7 8 9 10 7 8 11 12 9 9 9 8 11 11 9 8 8 8 8 8 8 3 1 3 6 5 4 23 38 38 37 37 37 38 42 43 42 40 39 41 43 44 42
11 15 21 20 14 20 26 24 22 15 10 12 12 12 9 8 8 6 3 3 3 6 5 5 6 7 5 19 32 45 43 42 43 42 41 40 42 42 41 41 40 42 43 43
19 22 22 24 27 29 28 29 29 30 33 31 24 19 14 9 7 5 4 4 4 4 5 14 6 8 11 20 44 46 44 43 43 45 45 44 44 43 42 42 41 42 43 43
16 16 21 20 18 20 19 14 17 15 17 22 21 17 14 12 10 8 7 6 6 4 4 13 5 7 18 42 46 43 42 41 41 41 42 43 43 44 45 45 44 43 43 42
23 27 30 30 26 16 13 14 13 14 14 21 22 21 19 16 9 8 7 6 6 5 18 7 6 13 40 47 47 46 43 42 42 41 42 42 41 41 41 41 41 39 37 36
29 38 31 19 20 18 19 23 21 16 24 28 23 19 23 20 13 9 6 5 8 19 5 9 14 44 49 45 45 45 43 42 43 43 42 41 40 38 36 36 35 34 32 31
42 42 31 15 13 24 28 27 24 19 16 11 10 23 23 12 13 8 9 11 12 6 6 20 46 49 47 46 46 46 45 44 45 43 41 39 37 36 35 33 32 33 32 34
38 28 22 31 31 32 31 30 28 27 28 25 13 11 16 19 8 12 8 13 8 8 29 49 49 48 47 46 45 44 45 46 43 41 39 37 39 38 33 32 30 27 28 28
54 41 39 37 37 34 29 24 23 25 31 29 30 18 9 10 11 10 8 17 12 36 45 46 47 45 46 44 44 47 43 40 37 39 41 39 32 31 28 26 26 26 25 27
46 38 35 34 33 33 33 35 39 37 31 33 29 20 16 12 16 13 19 26 39 42 44 43 43 43 42 44 42 40 37 36 37 39 36 32 29 30 30 31 32 30 29 28
Wind_Direction
271 263 256 259 250 254 254 253 258 260 262 260 263 259 264 278 279 264 260 266 267 268 278 271 272 269 270 271 269 258 255 256 257 266 261 255 248 245 243 221 212 222 238 262
260 267 258 261 259 252 259 248 254 252 251 253 256 259 264 273 270 259 277 267 270 271 272 266 275 275 274 270 266 249 236 235 259 276 257 249 243 242 236 234 239 236 208 257
266 265 259 255 252 257 262 249 251 253 247 252 253 260 266 267 258 270 275 266 276 268 277 273 270 271 271 265 258 251 239 239 238 246 264 267 261 263 244 238 239 245 239 249
265 265 264 262 246 254 255 255 256 260 247 260 251 250 268 262 266 266 262 271 280 271 269 270 263 268 264 261 257 245 241 248 248 253 257 266 270 262 253 245 244 235 260 256
269 261 259 261 262 265 269 260 251 253 263 265 263 251 271 260 276 257 266 272 281 266 272 272 266 268 265 259 254 248 248 250 262 268 267 267 269 266 264 263 263 262 264 266
264 263 262 257 263 265 267 255 249 257 261 259 259 262 271 269 276 260 268 277 268 269 270 269 269 267 263 258 256 260 252 245 251 264 269 265 270 265 262 261 262 264 263 273
270 261 263 265 261 259 260 262 272 258 256 253 259 263 268 261 266 261 276 269 262 267 268 265 261 260 260 259 258 254 249 245 245 265 264 253 265 262 258 253 257 261 261 266
263 262 265 258 269 270 267 259 271 277 265 266 260 267 248 255 265 262 260 262 263 263 259 259 261 261 261 256 252 243 241 239 233 230 218 268 277 274 272 273 267 262 268 276
270 262 257 256 260 261 264 273 273 272 267 253 254 261 264 258 255 255 253 251 256 256 252 250 236 228 227 246 246 234 238 238 241 235 235 256 271 266 281 282 285 280 271 269
274 269 261 256 255 254 263 270 272 287 252 261 269 258 256 254 248 243 250 250 246 251 248 243 239 234 225 235 229 219 227 238 234 241 246 261 264 273 283 276 284 278 282 290
266 270 269 260 255 256 257 267 275 270 258 264 261 247 243 247 244 247 248 236 241 239 235 232 230 229 225 240 243 255 236 226 225 235 248 265 265 283 286 290 291 294 296 297
278 280 270 261 262 256 257 261 266 259 251 257 248 248 245 240 236 238 238 234 239 222 217 227 228 235 256 253 251 244 252 232 247 226 243 270 284 288 290 292 292 294 293 295
272 276 272 272 263 250 253 240 243 241 273 260 229 225 228 229 231 237 235 238 249 253 260 265 259 245 252 250 258 264 264 265 263 273 275 282 284 289 294 291 292 295 296 297
289 285 286 285 281 278 275 271 262 273 262 228 212 213 211 217 222 229 242 261 278 279 264 253 252 255 264 263 266 275 286 286 290 287 297 294 292 298 295 294 296 297 298 297
343 337 329 316 308 301 306 302 283 254 247 233 183 181 189 198 245 306 312 287 269 261 256 256 257 261 272 283 289 290 312 313 309 302 309 299 309 308 299 297 299 299 298 301
14 11 6 360 349 338 315 253 312 289 163 55 131 106 75 68 61 349 324 314 312 297 271 251 310 310 305 308 315 333 333 326 320 317 310 305 311 305 303 299 301 298 297 300
6 3 356 347 335 320 301 309 107 104 105 131 112 85 84 76 72 71 81 85 76 72 98 87 35 349 331 332 339 346 341 332 327 322 315 311 312 307 306 303 301 298 298 299
24 40 57 58 57 64 84 99 92 97 102 90 81 90 73 76 84 95 104 84 49 45 59 23 350 339 329 322 344 345 336 327 322 318 313 311 310 308 305 302 300 298 297 297
76 83 78 82 92 87 85 82 76 66 87 86 79 85 62 66 79 84 70 29 14 39 21 338 328 322 332 333 336 335 330 325 320 316 313 311 307 307 305 302 300 297 297 297
95 105 107 89 87 89 87 84 75 70 65 66 64 62 58 54 42 32 9 353 325 325 307 346 301 323 328 327 335 328 325 321 319 317 316 315 312 310 308 305 303 301 301 300
99 106 94 89 88 81 64 61 57 49 51 45 48 47 40 34 35 34 16 348 333 296 301 333 297 323 322 330 327 324 320 318 317 315 313 314 313 313 311 309 308 307 306 306
95 89 88 84 66 52 55 45 45 51 48 43 47 45 39 32 20 12 350 349 335 300 320 310 301 321 326 328 325 324 323 322 320 319 317 316 314 313 310 310 309 309 308 307
101 90 75 61 61 70 67 58 61 59 58 56 46 39 41 34 20 9 348 338 324 315 301 309 319 325 332 327 325 324 326 325 323 322 320 318 317 317 317 316 314 312 311 307
96 83 72 61 61 68 64 63 58 52 46 34 20 39 35 17 20 1 352 329 324 315 297 323 325 332 330 331 330 329 329 327 326 324 322 321 322 319 318 314 313 311 309 306
88 80 68 78 77 73 69 67 64 60 56 52 43 32 26 26 16 4 347 343 321 311 325 325 332 334 333 329 333 331 327 327 325 325 326 327 322 321 319 320 320 318 318 315
84 87 87 81 76 70 65 60 57 55 52 49 44 31 9 11 5 349 344 335 328 321 328 334 335 330 329 333 328 327 328 329 330 333 334 334 337 336 335 332 333 332 326 319
85 82 82 80 75 69 65 59 54 51 45 44 41 32 25 10 357 349 335 326 331 334 337 334 332 334 334 335 335 337 339 340 341 343 345 346 345 342 342 341 343 339 336 334
Height
3068 3068 3068 3069 3068 3068 3070 3069 3068 3068 3070 3074 3068 3067 3069 3071 3070 3072 3071 3069 3069 3069 3071 3068 3068 3064 3066 3063 3064 3064 3065 3062 3057 3056 3055 3056 3056 3055 3058 3059 3057 3055 3053 3041
3059 3056 3058 3059 3055 3059 3058 3057 3057 3056 3060 3057 3057 3059 3061 3062 3062 3063 3062 3062 3060 3061 3061 3061 3056 3055 3056 3056 3056 3055 3056 3054 3053 3048 3047 3045 3044 3043 3046 3047 3049 3043 3048 3032
3048 3047 3048 3050 3048 3048 3050 3048 3044 3045 3047 3047 3049 3051 3051 3053 3053 3054 3055 3054 3053 3053 3052 3052 3046 3047 3047 3046 3047 3046 3048 3044 3041 3038 3036 3037 3038 3037 3037 3039 3039 3036 3024 3029
3036 3037 3038 3039 3039 3041 3042 3034 3034 3036 3034 3035 3039 3042 3042 3043 3043 3045 3045 3042 3043 3043 3041 3041 3039 3039 3039 3037 3038 3037 3039 3033 3033 3031 3032 3030 3029 3027 3028 3026 3027 3025 3017 3019
3027 3027 3027 3028 3028 3030 3029 3028 3027 3026 3026 3027 3033 3030 3030 3032 3034 3035 3034 3032 3033 3034 3031 3031 3030 3030 3030 3029 3029 3029 3028 3026 3024 3022 3024 3023 3016 3014 3015 3015 3015 3012 3013 3008
3017 3017 3018 3019 3019 3017 3016 3015 3018 3020 3017 3017 3022 3020 3021 3022 3024 3023 3023 3024 3023 3022 3022 3022 3021 3022 3022 3023 3022 3022 3022 3020 3018 3014 3014 3013 3005 3000 3001 3003 3003 3006 3004 3005
3007 3008 3009 3009 3009 3009 3008 3010 3011 3008 3007 3008 3009 3011 3013 3011 3013 3014 3014 3012 3012 3012 3013 3013 3013 3013 3013 3012 3012 3014 3013 3014 3013 3010 3011 3009 2993 2993 2995 2995 2996 2997 2996 2995
2996 2998 3001 3001 3000 3001 2997 2997 3000 3001 2999 2999 2999 3002 3001 3001 3003 3004 3004 3004 3005 3005 3005 3006 3006 3005 3005 3003 3003 3005 3005 3007 3007 3006 3003 2993 2989 2988 2989 2988 2989 2991 2990 2987
2988 2988 2989 2992 2995 2994 2993 2994 2991 2995 2992 2990 2991 2993 2995 2994 2993 2995 2995 2996 2997 2997 2999 3000 2999 2999 2997 2997 2996 2996 2999 3000 3003 3001 2999 2991 2983 2983 2983 2982 2978 2979 2979 2977
2981 2982 2983 2984 2986 2988 2989 2988 2987 2988 2980 2985 2986 2984 2987 2985 2988 2989 2990 2990 2990 2992 2993 2994 2994 2993 2993 2993 2992 2991 2993 2994 2993 2993 2991 2985 2980 2979 2978 2981 2979 2973 2971 2969
2974 2975 2975 2976 2978 2979 2982 2981 2980 2981 2978 2977 2976 2977 2979 2981 2983 2983 2985 2987 2984 2987 2989 2989 2989 2987 2987 2987 2987 2988 2990 2990 2988 2987 2986 2983 2976 2975 2977 2973 2968 2964 2959 2955
2968 2968 2968 2969 2970 2971 2973 2973 2972 2971 2973 2970 2971 2972 2974 2977 2977 2980 2980 2981 2982 2982 2983 2984 2984 2984 2983 2984 2985 2984 2987 2985 2984 2984 2979 2975 2971 2969 2966 2962 2957 2955 2949 2946
2963 2963 2964 2963 2963 2964 2966 2964 2964 2964 2966 2970 2970 2969 2970 2972 2974 2976 2978 2978 2979 2979 2980 2981 2981 2982 2981 2981 2980 2980 2980 2980 2977 2976 2972 2970 2966 2963 2959 2953 2948 2944 2940 2934
2960 2960 2959 2959 2959 2959 2960 2961 2962 2963 2964 2964 2966 2967 2969 2970 2972 2973 2974 2975 2976 2977 2977 2978 2978 2979 2978 2977 2978 2977 2977 2975 2972 2967 2966 2960 2958 2956 2950 2944 2939 2934 2929 2924
2959 2959 2958 2958 2958 2958 2958 2958 2959 2959 2964 2962 2963 2966 2969 2970 2971 2972 2973 2974 2974 2974 2975 2975 2976 2975 2976 2975 2974 2974 2973 2971 2967 2960 2959 2952 2948 2946 2941 2934 2930 2925 2918 2913
2960 2959 2958 2958 2958 2957 2957 2958 2959 2957 2959 2962 2964 2969 2969 2971 2972 2972 2973 2973 2974 2974 2974 2974 2974 2974 2975 2973 2973 2973 2970 2965 2961 2955 2950 2945 2941 2936 2932 2924 2920 2914 2907 2903
2960 2959 2958 2958 2957 2957 2957 2959 2959 2959 2961 2962 2965 2970 2973 2973 2973 2974 2974 2974 2975 2975 2975 2975 2975 2974 2974 2972 2972 2969 2964 2958 2953 2947 2939 2933 2932 2922 2921 2914 2908 2902 2897 2892
2961 2960 2959 2959 2958 2958 2958 2959 2961 2962 2964 2965 2969 2974 2976 2976 2976 2977 2977 2977 2976 2976 2976 2976 2975 2974 2972 2971 2969 2964 2958 2951 2945 2940 2933 2924 2916 2912 2907 2902 2895 2888 2883 2879
2964 2963 2963 2964 2965 2963 2963 2964 2965 2965 2968 2968 2975 2977 2979 2980 2980 2980 2980 2979 2978 2978 2976 2976 2975 2972 2971 2969 2964 2958 2950 2943 2934 2928 2922 2916 2907 2900 2894 2888 2883 2876 2870 2865
2969 2970 2971 2970 2971 2972 2972 2973 2973 2975 2975 2978 2981 2983 2984 2984 2983 2982 2982 2980 2979 2977 2977 2974 2971 2970 2969 2965 2960 2950 2941 2934 2926 2915 2907 2901 2895 2888 2881 2875 2870 2863 2857 2851
2975 2976 2975 2977 2978 2977 2977 2980 2982 2984 2986 2989 2989 2988 2987 2987 2986 2984 2983 2981 2979 2977 2977 2974 2970 2968 2965 2960 2951 2943 2934 2925 2917 2909 2900 2892 2884 2875 2868 2862 2856 2850 2844 2838
2982 2981 2982 2983 2982 2985 2988 2990 2994 2995 2997 2998 2995 2993 2991 2988 2987 2985 2985 2982 2981 2978 2975 2972 2969 2967 2962 2951 2940 2931 2923 2915 2907 2899 2890 2882 2875 2867 2859 2852 2845 2840 2834 2828
2990 2988 2988 2991 2997 3000 3001 3004 3005 3005 3005 3003 3000 2998 2995 2992 2990 2988 2986 2984 2983 2978 2974 2972 2969 2963 2953 2943 2932 2922 2915 2906 2897 2888 2881 2872 2864 2858 2850 2843 2837 2831 2825 2820
2995 2995 2999 3003 3012 3014 3014 3013 3012 3011 3009 3007 3005 3003 3000 2997 2995 2991 2990 2988 2981 2978 2974 2971 2965 2955 2943 2933 2924 2914 2904 2896 2887 2878 2870 2863 2855 2848 2842 2835 2829 2822 2817 2811
2997 3007 3014 3021 3023 3023 3022 3020 3019 3017 3014 3011 3009 3006 3004 3001 2999 2998 2996 2992 2987 2982 2977 2967 2957 2946 2936 2925 2916 2906 2896 2887 2878 2870 2863 2855 2847 2839 2833 2827 2821 2815 2810 2804
3009 3017 3028 3030 3030 3029 3028 3026 3025 3023 3020 3015 3011 3009 3008 3007 3006 3003 2999 2996 2991 2983 2973 2963 2951 2940 2930 2920 2909 2899 2890 2881 2872 2865 2857 2847 2839 2832 2826 2821 2815 2810 2804 2798
3026 3034 3036 3037 3037 3037 3035 3033 3030 3027 3023 3019 3017 3017 3017 3014 3010 3006 3001 2996 2988 2977 2967 2958 2947 2935 2924 2913 2903 2894 2885 2877 2869 2859 2851 2843 2836 2830 2823 2816 2809 2803 2797 2791